Windom, MN

5:00 AM CDT on April 30, 2017 (GMT -0500)
Windom Municipal

Weather History for KMWM - December, 2012

Change the Weather History Date:

Saturday, December 8, 2012

  Actual Average Record
Temperature  
Mean Temperature 26 °F -  
Max Temperature 33 °F 29 °F 53 °F (1970)
Min Temperature 19 °F 11 °F -15 °F (1972)
Degree Days  
Heating Degree Days 40    
Moisture  
Dew Point 26 °F    
Average Humidity 95    
Maximum Humidity 100    
Minimum Humidity 86    
Precipitation  
Precipitation 0.00 in - - ()
Sea Level Pressure  
Sea Level Pressure 29.94 in    
Wind  
Wind Speed 0 mph (North)    
Max Wind Speed 0 mph    
Max Gust Speed -    
Visibility 4 miles    
Events Fog , Snow    
Averages and records for this station are not official NWS values.
T = Trace of Precipitation, MM = Missing Value Source: NWS Daily Summary

Daily Weather History Graph

Daily Weather History Graph

Search for Another Location

Airport or City:

Trip Planner

Search our weather history database for the weather conditions in past years. The results will help you decide how hot, cold, wet, or windy it might be!

Date:

Astronomy

Dec. 08, 2012 Rise Set
Actual Time 7:42 AM CST 4:42 PM CST
Civil Twilight 7:09 AM CST 5:15 PM CST
Nautical Twilight 6:33 AM CST 5:51 PM CST
Astronomical Twilight 5:58 AM CST 6:26 PM CST
Moon 1:59 AM CST (12/8) 1:20 PM CST (12/8)
Length of Visible Light 10h 05m
Length of Day
9h 00m
Waning Crescent, 28% of the Moon is Illuminated
Dec 8
Waning Crescent
Dec 13
New
Dec 19
First Quarter
Dec 28
Full
Jan 4
Last Quarter

Hourly Weather History & Observations

Time (CST) Temp. Dew Point Humidity Pressure Visibility Wind Dir Wind Speed Gust Speed Precip Events Conditions
12:12 AM 24.8 °F 24.8 °F 100% 29.99 in 2.5 mi Calm Calm - N/A Snow Light Snow
12:32 AM 24.8 °F 23.0 °F 93% 29.98 in 3.0 mi Calm Calm - N/A   Overcast
12:52 AM 23.0 °F 21.2 °F 93% 29.98 in 3.0 mi Calm Calm - N/A   Overcast
1:13 AM 19.4 °F 19.4 °F 100% 29.98 in 1.8 mi Calm Calm - N/A   Overcast
1:32 AM 19.4 °F 19.4 °F 100% 29.98 in 1.2 mi Calm Calm - N/A   Overcast
1:52 AM 23.0 °F 21.2 °F 93% 29.97 in 1.8 mi Calm Calm - N/A   Overcast
2:13 AM 24.8 °F 24.8 °F 100% 29.98 in 3.0 mi Calm Calm - N/A   Overcast
2:32 AM 24.8 °F 24.8 °F 100% 29.98 in 2.5 mi Calm Calm - N/A   Overcast
2:53 AM 24.8 °F 24.8 °F 100% 29.99 in 2.0 mi Calm Calm - N/A   Overcast
3:12 AM 24.8 °F 24.8 °F 100% 29.99 in 2.0 mi Calm Calm - N/A   Overcast
3:32 AM 26.6 °F 24.8 °F 93% 29.99 in 2.0 mi Calm Calm - N/A   Overcast
3:53 AM 26.6 °F 24.8 °F 93% 29.99 in 2.5 mi Calm Calm - N/A   Overcast
4:12 AM 26.6 °F 24.8 °F 93% 29.99 in 3.0 mi Calm Calm - N/A   Overcast
4:32 AM 26.6 °F 24.8 °F 93% 29.99 in 3.0 mi Calm Calm - N/A   Overcast
4:53 AM 26.6 °F 24.8 °F 93% 29.99 in 3.0 mi Calm Calm - N/A   Overcast
5:12 AM 26.6 °F 24.8 °F 93% 29.98 in 3.0 mi Calm Calm - N/A Snow Light Snow
5:53 AM 26.6 °F 24.8 °F 93% 29.98 in 3.0 mi Calm Calm - N/A   Overcast
6:12 AM 26.6 °F 24.8 °F 93% 29.98 in 3.0 mi Calm Calm - N/A   Overcast
6:32 AM 26.6 °F 24.8 °F 93% 29.98 in 4.0 mi Calm Calm - N/A   Overcast
6:53 AM 26.6 °F 24.8 °F 93% 29.98 in 3.0 mi Calm Calm - N/A   Overcast
7:12 AM 26.6 °F 24.8 °F 93% 29.98 in 2.0 mi Calm Calm - N/A   Overcast
7:32 AM 26.6 °F 24.8 °F 93% 29.97 in 1.8 mi Calm Calm - N/A   Overcast
7:53 AM 26.6 °F 24.8 °F 93% 29.96 in 2.0 mi Calm Calm - N/A Snow Light Snow
8:12 AM 26.6 °F 24.8 °F 93% 29.98 in 0.8 mi Calm Calm - N/A Snow Light Snow
8:32 AM 24.8 °F 24.8 °F 100% 29.99 in 0.2 mi Calm Calm - N/A Fog Light Freezing Fog
8:53 AM 24.8 °F 24.8 °F 100% 30.00 in 0.2 mi Calm Calm - N/A   Overcast
9:12 AM 24.8 °F 24.8 °F 100% 30.00 in 0.2 mi Calm Calm - N/A   Overcast
9:32 AM 24.8 °F 24.8 °F 100% 30.00 in 0.2 mi Calm Calm - N/A   Overcast
9:53 AM 24.8 °F 24.8 °F 100% 30.01 in 0.2 mi Calm Calm - N/A   Overcast
10:12 AM 24.8 °F 24.8 °F 100% 30.01 in 0.2 mi Calm Calm - N/A Fog Light Freezing Fog
10:53 AM 24.8 °F 24.8 °F 100% 29.99 in 2.5 mi Calm Calm - N/A   Overcast
11:12 AM 24.8 °F 24.8 °F 100% 29.99 in 1.5 mi Calm Calm - N/A   Overcast
11:32 AM 26.6 °F 24.8 °F 93% 29.98 in 2.0 mi Calm Calm - N/A   Overcast
11:53 AM 24.8 °F 24.8 °F 100% 29.98 in 2.5 mi Calm Calm - N/A   Overcast
12:12 PM 26.6 °F 24.8 °F 93% 29.97 in 1.5 mi Calm Calm - N/A   Overcast
12:32 PM 26.6 °F 24.8 °F 93% 29.95 in 3.0 mi Calm Calm - N/A   Overcast
12:53 PM 26.6 °F 24.8 °F 93% 29.95 in 3.0 mi Calm Calm - N/A   Overcast
1:12 PM 26.6 °F 24.8 °F 93% 29.95 in 5.0 mi Calm Calm - N/A   Overcast
1:53 PM 26.6 °F 26.6 °F 100% 29.92 in 10.0 mi Calm Calm - N/A   Overcast
2:12 PM 26.6 °F 26.6 °F 100% 29.92 in 10.0 mi Calm Calm - N/A   Overcast
2:33 PM 26.6 °F 26.6 °F 100% 29.91 in 10.0 mi Calm Calm - N/A   Overcast
2:52 PM 26.6 °F 26.6 °F 100% 29.91 in 10.0 mi Calm Calm - N/A   Overcast
3:13 PM 28.4 °F 26.6 °F 93% 29.90 in 10.0 mi Calm Calm - N/A   Overcast
3:33 PM 28.4 °F 26.6 °F 93% 29.91 in 10.0 mi Calm Calm - N/A   Mostly Cloudy
3:52 PM 28.4 °F 26.6 °F 93% 29.91 in 10.0 mi Calm Calm - N/A   Overcast
4:13 PM 28.4 °F 26.6 °F 93% 29.91 in 10.0 mi Calm Calm - N/A   Overcast
4:32 PM 28.4 °F 26.6 °F 93% 29.91 in 10.0 mi Calm Calm - N/A   Overcast
4:52 PM 28.4 °F 26.6 °F 93% 29.90 in 10.0 mi Calm Calm - N/A   Mostly Cloudy
5:13 PM 28.4 °F 26.6 °F 93% 29.91 in 7.0 mi Calm Calm - N/A   Clear
5:32 PM 28.4 °F 26.6 °F 93% 29.91 in 7.0 mi Calm Calm - N/A   Clear
5:52 PM 28.4 °F 26.6 °F 93% 29.91 in 7.0 mi Calm Calm - N/A   Scattered Clouds
5:59 PM 28.4 °F 26.6 °F 93% 29.91 in 7.0 mi Calm Calm - N/A   Mostly Cloudy
6:52 PM 28.4 °F 26.6 °F 93% 29.90 in 7.0 mi Calm Calm - N/A   Overcast
7:13 PM 28.4 °F 26.6 °F 93% 29.89 in 10.0 mi Calm Calm - N/A   Overcast
7:32 PM 30.2 °F 26.6 °F 86% 29.88 in 10.0 mi Calm Calm - N/A   Mostly Cloudy
7:52 PM 30.2 °F 26.6 °F 86% 29.88 in 10.0 mi Calm Calm - N/A   Overcast
8:13 PM 30.2 °F 26.6 °F 86% 29.87 in 10.0 mi Calm Calm - N/A   Overcast
8:32 PM 30.2 °F 28.4 °F 93% 29.86 in 7.0 mi Calm Calm - N/A Snow Light Snow
8:52 PM 30.2 °F 28.4 °F 93% 29.85 in 2.5 mi Calm Calm - N/A Snow Light Snow
9:13 PM 30.2 °F 30.2 °F 100% 29.85 in 1.0 mi Calm Calm - N/A Snow Snow
9:32 PM 30.2 °F 30.2 °F 100% 29.86 in 1.5 mi Calm Calm - N/A Snow Light Snow
10:12 PM 32.0 °F 30.2 °F 93% 29.87 in 4.0 mi Calm Calm - N/A Snow Light Snow
10:33 PM 32.0 °F 30.2 °F 93% 29.88 in 5.0 mi Calm Calm - N/A Snow Light Snow
10:53 PM 32.0 °F 30.2 °F 93% 29.88 in 3.0 mi Calm Calm - N/A Snow Light Snow
11:12 PM 32.0 °F 30.2 °F 93% 29.88 in 4.0 mi Calm Calm - N/A Snow Light Snow
11:33 PM 32.0 °F 30.2 °F 93% 29.87 in 7.0 mi Calm Calm - N/A Snow Light Snow
11:52 PM 33.8 °F 30.2 °F 87% 29.87 in 4.0 mi Calm Calm - N/A Snow Light Snow